This is the latest recevied weather packets stored in our database for station/object SQ5SUI-3. If no packets are shown the sender has not sent any weather packets the latest 10 day(s).
| Time | Temp. | Humidity | Pressure | Rain* | Wind** | Luminosity | Snow |
|---|---|---|---|---|---|---|---|
| 1777535722 | 7.78° C | 20% | 992 hPa | 0 mm | - | - | - |
| 1777533922 | 7.22° C | 36% | 991.9 hPa | 0 mm | - | - | - |
| 1777532122 | 5° C | 44% | 991.8 hPa | 0 mm | - | - | - |
| 1777530320 | 4.44° C | 54% | 991.5 hPa | 0 mm | - | - | - |
| 1777528522 | 3.33° C | 58% | 991.7 hPa | 0 mm | - | - | - |
| 1777526721 | 2.22° C | 58% | 991.6 hPa | 0 mm | - | - | - |
| 1777524921 | 1.67° C | 62% | 991.7 hPa | 0 mm | - | - | - |
| 1777523122 | 0.56° C | 65% | 991.8 hPa | 0 mm | - | - | - |
| 1777521320 | 0° C | 68% | 992 hPa | 0 mm | - | - | - |
| 1777519521 | -0.56° C | 70% | 992.1 hPa | 0 mm | - | - | - |
| 1777517722 | -0.56° C | 70% | 991.9 hPa | 0 mm | - | - | - |
| 1777515922 | -0.56° C | 71% | 991.9 hPa | 0 mm | - | - | - |
| 1777514120 | -1.67° C | 76% | 992.1 hPa | 0 mm | - | - | - |
| 1777512321 | -1.67° C | 73% | 992.1 hPa | 0 mm | - | - | - |
| 1777510522 | -1.11° C | 75% | 992.4 hPa | 0 mm | - | - | - |
| 1777508722 | -2.78° C | 76% | 992.4 hPa | 0 mm | - | - | - |
| 1777506922 | -2.78° C | 74% | 992.2 hPa | 0 mm | - | - | - |
| 1777505122 | -2.22° C | 74% | 992.5 hPa | 0 mm | - | - | - |
| 1777503321 | -2.22° C | 73% | 992.5 hPa | 0 mm | - | - | - |
| 1777501522 | -2.22° C | 73% | 992.6 hPa | 0 mm | - | - | - |
| 1777499721 | -2.22° C | 71% | 992.7 hPa | 0 mm | - | - | - |
| 1777497921 | -1.67° C | 74% | 993 hPa | 0 mm | - | - | - |
| 1777496121 | -1.11° C | 73% | 993.5 hPa | 0 mm | - | - | - |
| 1777494321 | -1.11° C | 71% | 993.8 hPa | 0 mm | - | - | - |
| 1777492521 | 0° C | 67% | 994.2 hPa | 0 mm | - | - | - |
* Rain latest hour (hover to see other rain measurements)
** Current wind speed in m/s (hover to see current wind gust speed)